CMM5900 SKBQ-SKSP

Flight info

Callsign CMM5900
Flight time 1h 8m
Altitude 38000
Route VARON2G VARON A552 ALPON UP671 TIMRO DCT PUMRI PUMRI2A
Aircraft B737/M-SDE2E3FGHIRWXY/LB1

Departure

Time 2026-04-21 22:56
Airport Ernesto Cortissoz International Airport (SKBQ)

Arrival

Time 2026-04-22 00:04
Airport Gustavo Rojas Pinilla International Airport (SKSP)
Time Latitude Longitude Altitude Speed Heading
2026-04-21 22:51 10.88567 -74.77920 88 ft 13 kts 309°
2026-04-21 22:51 10.88537 -74.77991 87 ft 12 kts 219°
2026-04-21 22:51 10.88471 -74.78046 92 ft 12 kts 219°
2026-04-21 22:51 10.88424 -74.78114 91 ft 12 kts 256°
2026-04-21 22:52 10.88431 -74.78194 91 ft 11 kts 282°
2026-04-21 22:52 10.88440 -74.78273 90 ft 11 kts 255°
2026-04-21 22:52 10.88386 -74.78326 95 ft 11 kts 219°
2026-04-21 22:52 10.88328 -74.78374 94 ft 11 kts 221°
2026-04-21 22:53 10.88274 -74.78423 93 ft 10 kts 221°
2026-04-21 22:53 10.88220 -74.78468 94 ft 10 kts 219°
2026-04-21 22:53 10.88168 -74.78512 96 ft 10 kts 220°
2026-04-21 22:53 10.88112 -74.78560 99 ft 11 kts 220°
2026-04-21 22:54 10.88053 -74.78611 98 ft 11 kts 220°
2026-04-21 22:54 10.87990 -74.78665 99 ft 12 kts 220°
2026-04-21 22:54 10.87926 -74.78724 100 ft 13 kts 234°
2026-04-21 22:54 10.87912 -74.78811 102 ft 13 kts 266°
2026-04-21 22:55 10.87906 -74.78905 103 ft 14 kts 266°
2026-04-21 22:55 10.87955 -74.78947 102 ft 14 kts 34°
2026-04-21 22:55 10.88160 -74.78772 98 ft 72 kts 40°
2026-04-21 22:55 10.88714 -74.78299 90 ft 133 kts 40°
2026-04-21 22:56 10.89536 -74.77591 232 ft 166 kts 39°
2026-04-21 22:56 10.90396 -74.76846 968 ft 161 kts 40°
2026-04-21 22:56 10.91305 -74.76193 1648 ft 160 kts 22°
2026-04-21 22:56 10.92423 -74.75947 2057 ft 180 kts
2026-04-21 22:57 10.93763 -74.76096 2329 ft 207 kts 352°
2026-04-21 22:57 10.95275 -74.76351 2531 ft 234 kts 352°
2026-04-21 22:57 10.96971 -74.76644 2779 ft 261 kts 351°
2026-04-21 22:57 10.98853 -74.76997 3004 ft 288 kts 347°
2026-04-21 22:58 11.00807 -74.77680 3450 ft 304 kts 335°
2026-04-21 22:58 11.02466 -74.79034 4097 ft 313 kts 307°
2026-04-21 22:58 11.03276 -74.81084 4850 ft 318 kts 278°
2026-04-21 22:58 11.03440 -74.83304 5603 ft 320 kts 272°
2026-04-21 22:59 11.03480 -74.85590 6299 ft 325 kts 270°
2026-04-21 22:59 11.03479 -74.87902 7064 ft 328 kts 270°
2026-04-21 22:59 11.03471 -74.90243 7852 ft 332 kts 270°
2026-04-21 22:59 11.03464 -74.92603 8628 ft 335 kts 270°
2026-04-21 23:00 11.03463 -74.94989 9384 ft 339 kts 270°
2026-04-21 23:00 11.03467 -74.97401 10176 ft 342 kts 270°
2026-04-21 23:00 11.03475 -74.99836 11017 ft 344 kts 270°
2026-04-21 23:00 11.03486 -75.02282 11826 ft 347 kts 270°
2026-04-21 23:01 11.03499 -75.04752 12625 ft 351 kts 270°
2026-04-21 23:01 11.03512 -75.07244 13412 ft 354 kts 270°
2026-04-21 23:01 11.03525 -75.09768 14153 ft 358 kts 270°
2026-04-21 23:01 11.03538 -75.12322 14859 ft 363 kts 270°
2026-04-21 23:02 11.03551 -75.14906 15580 ft 367 kts 270°
2026-04-21 23:02 11.03564 -75.17525 16273 ft 372 kts 270°
2026-04-21 23:02 11.03577 -75.20174 16945 ft 376 kts 270°
2026-04-21 23:02 11.03591 -75.22811 17630 ft 379 kts 270°
2026-04-21 23:03 11.03603 -75.25506 18270 ft 383 kts 270°
2026-04-21 23:03 11.03617 -75.28231 18868 ft 387 kts 270°
2026-04-21 23:03 11.03629 -75.30991 19436 ft 392 kts 270°
2026-04-21 23:03 11.03642 -75.33787 19990 ft 397 kts 270°
2026-04-21 23:04 11.03655 -75.36615 20529 ft 402 kts 270°
2026-04-21 23:04 11.03667 -75.39472 21044 ft 406 kts 270°
2026-04-21 23:04 11.03680 -75.42361 21554 ft 410 kts 270°
2026-04-21 23:04 11.03692 -75.45277 22049 ft 414 kts 270°
2026-04-21 23:05 11.03705 -75.48228 22525 ft 418 kts 270°
2026-04-21 23:05 11.03717 -75.51203 22977 ft 422 kts 270°
2026-04-21 23:05 11.03728 -75.54188 23408 ft 426 kts 270°
2026-04-21 23:05 11.03740 -75.57238 23827 ft 429 kts 270°
2026-04-21 23:06 11.03751 -75.60273 24249 ft 432 kts 270°
2026-04-21 23:06 11.03763 -75.63325 24649 ft 435 kts 270°
2026-04-21 23:06 11.03775 -75.66433 25087 ft 437 kts 270°
2026-04-21 23:06 11.03784 -75.69503 25535 ft 438 kts 270°
2026-04-21 23:07 11.03801 -75.72598 25991 ft 439 kts 271°
2026-04-21 23:07 11.03944 -75.74668 26260 ft 440 kts 277°
2026-04-21 23:07 11.04838 -75.78726 26799 ft 442 kts 285°
2026-04-21 23:07 11.05690 -75.81743 27205 ft 444 kts 286°
2026-04-21 23:08 11.06274 -75.83777 27468 ft 445 kts 286°
2026-04-21 23:08 11.07134 -75.86807 27849 ft 446 kts 285°
2026-04-21 23:08 11.07976 -75.89840 28198 ft 448 kts 285°
2026-04-21 23:08 11.08808 -75.92899 28569 ft 450 kts 285°
2026-04-21 23:09 11.09638 -75.95979 28957 ft 451 kts 285°
2026-04-21 23:09 11.10471 -75.99076 29309 ft 452 kts 285°
2026-04-21 23:09 11.11300 -76.02148 29631 ft 453 kts 285°
2026-04-21 23:09 11.12139 -76.05259 29945 ft 456 kts 284°
2026-04-21 23:10 11.12977 -76.08370 30302 ft 456 kts 284°
2026-04-21 23:10 11.13808 -76.11454 30756 ft 454 kts 284°
2026-04-21 23:10 11.14647 -76.14568 31244 ft 452 kts 284°
2026-04-21 23:10 11.15476 -76.17649 31692 ft 451 kts 284°
2026-04-21 23:11 11.16304 -76.20724 32124 ft 450 kts 284°
2026-04-21 23:11 11.17130 -76.23799 32537 ft 449 kts 284°
2026-04-21 23:11 11.17943 -76.26824 32970 ft 448 kts 283°
2026-04-21 23:11 11.18763 -76.29875 33436 ft 446 kts 283°
2026-04-21 23:12 11.19579 -76.32917 33852 ft 444 kts 283°
2026-04-21 23:12 11.20394 -76.35955 34234 ft 444 kts 283°
2026-04-21 23:12 11.21208 -76.38988 34593 ft 443 kts 283°
2026-04-21 23:12 11.22023 -76.42023 34947 ft 443 kts 283°
2026-04-21 23:13 11.22833 -76.45047 35265 ft 443 kts 283°
2026-04-21 23:13 11.23646 -76.48079 35596 ft 442 kts 283°
2026-04-21 23:13 11.24445 -76.51059 35892 ft 442 kts 283°
2026-04-21 23:13 11.25259 -76.54103 35863 ft 447 kts 283°
2026-04-21 23:14 11.26892 -76.60211 35883 ft 445 kts 283°
2026-04-21 23:14 11.28507 -76.66249 35890 ft 439 kts 283°
2026-04-21 23:15 11.30112 -76.72256 35892 ft 440 kts 283°
2026-04-21 23:15 11.31721 -76.78293 35892 ft 440 kts 283°
2026-04-21 23:16 11.33324 -76.84311 35891 ft 441 kts 283°
2026-04-21 23:16 11.34925 -76.90320 35900 ft 441 kts 283°
2026-04-21 23:17 11.36531 -76.96353 35899 ft 441 kts 283°
2026-04-21 23:17 11.38106 -77.02406 35901 ft 441 kts 281°
2026-04-21 23:18 11.39455 -77.08482 35900 ft 441 kts 280°
2026-04-21 23:18 11.40775 -77.14589 35898 ft 442 kts 281°
2026-04-21 23:19 11.42127 -77.20713 35899 ft 442 kts 281°
2026-04-21 23:19 11.43486 -77.26810 35898 ft 442 kts 281°
2026-04-21 23:20 11.44849 -77.32925 35897 ft 442 kts 281°
2026-04-21 23:20 11.46211 -77.39045 35899 ft 442 kts 281°
2026-04-21 23:21 11.47628 -77.45147 35897 ft 443 kts 282°
2026-04-21 23:21 11.49226 -77.51185 35899 ft 443 kts 283°
2026-04-21 23:22 11.50852 -77.57246 35897 ft 443 kts 283°
2026-04-21 23:22 11.52454 -77.63309 35899 ft 443 kts 283°
2026-04-21 23:23 11.54041 -77.69370 35898 ft 442 kts 283°
2026-04-21 23:23 11.55623 -77.75432 35897 ft 442 kts 283°
2026-04-21 23:24 11.57203 -77.81501 35900 ft 441 kts 283°
2026-04-21 23:24 11.58765 -77.87510 35909 ft 440 kts 283°
2026-04-21 23:25 11.60337 -77.93552 35909 ft 440 kts 283°
2026-04-21 23:25 11.61907 -77.99593 35906 ft 441 kts 283°
2026-04-21 23:26 11.63478 -78.05640 35906 ft 440 kts 283°
2026-04-21 23:26 11.65044 -78.11674 35908 ft 440 kts 283°
2026-04-21 23:27 11.66601 -78.17679 35907 ft 440 kts 283°
2026-04-21 23:27 11.68163 -78.23716 35910 ft 440 kts 283°
2026-04-21 23:28 11.69723 -78.29751 35917 ft 439 kts 283°
2026-04-21 23:28 11.71283 -78.35781 35916 ft 439 kts 283°
2026-04-21 23:29 11.72838 -78.41802 35916 ft 439 kts 283°
2026-04-21 23:29 11.74399 -78.47851 35917 ft 440 kts 283°
2026-04-21 23:30 11.75945 -78.53851 35917 ft 440 kts 283°
2026-04-21 23:30 11.77505 -78.59907 35917 ft 441 kts 283°
2026-04-21 23:31 11.79068 -78.65976 35916 ft 440 kts 283°
2026-04-21 23:31 11.80625 -78.72011 35915 ft 441 kts 283°
2026-04-21 23:32 11.82226 -78.78061 35918 ft 441 kts 282°
2026-04-21 23:32 11.83507 -78.84186 35918 ft 441 kts 279°
2026-04-21 23:33 11.84653 -78.90313 35917 ft 442 kts 279°
2026-04-21 23:33 11.85830 -78.96484 35928 ft 442 kts 279°
2026-04-21 23:34 11.87036 -79.02655 35927 ft 443 kts 279°
2026-04-21 23:34 11.88248 -79.08785 35928 ft 443 kts 279°
2026-04-21 23:35 11.89468 -79.14958 35928 ft 443 kts 279°
2026-04-21 23:35 11.90688 -79.21143 35925 ft 443 kts 279°
2026-04-21 23:36 11.91896 -79.27278 35925 ft 443 kts 279°
2026-04-21 23:36 11.93110 -79.33447 35921 ft 443 kts 279°
2026-04-21 23:37 11.94319 -79.39611 35928 ft 442 kts 279°
2026-04-21 23:37 11.95527 -79.45772 35918 ft 442 kts 279°
2026-04-21 23:38 11.96735 -79.51943 35916 ft 442 kts 279°
2026-04-21 23:38 11.97933 -79.58059 35916 ft 442 kts 279°
2026-04-21 23:39 11.99137 -79.64215 35919 ft 442 kts 279°
2026-04-21 23:39 12.00340 -79.70377 35915 ft 441 kts 279°
2026-04-21 23:40 12.01538 -79.76522 35919 ft 441 kts 279°
2026-04-21 23:40 12.02734 -79.82664 35914 ft 441 kts 279°
2026-04-21 23:41 12.03928 -79.88807 35926 ft 440 kts 279°
2026-04-21 23:41 12.05113 -79.94899 35925 ft 440 kts 279°
2026-04-21 23:42 12.06301 -80.01028 35927 ft 439 kts 279°
2026-04-21 23:42 12.07489 -80.07152 35930 ft 439 kts 279°
2026-04-21 23:43 12.08675 -80.13277 35936 ft 439 kts 279°
2026-04-21 23:43 12.09855 -80.19394 35933 ft 438 kts 279°
2026-04-21 23:44 12.11037 -80.25508 35929 ft 439 kts 279°
2026-04-21 23:44 12.11632 -80.28593 35414 ft 444 kts 279°
2026-04-21 23:44 12.12227 -80.31682 34832 ft 443 kts 279°
2026-04-21 23:45 12.12816 -80.34738 34186 ft 444 kts 279°
2026-04-21 23:45 12.14013 -80.40953 32816 ft 446 kts 280°
2026-04-21 23:45 12.14612 -80.44070 32112 ft 448 kts 280°
2026-04-21 23:46 12.15215 -80.47203 31364 ft 449 kts 280°
2026-04-21 23:46 12.15817 -80.50335 30586 ft 450 kts 281°
2026-04-21 23:46 12.16423 -80.53488 29812 ft 452 kts 281°
2026-04-21 23:46 12.17027 -80.56631 29234 ft 448 kts 281°
2026-04-21 23:47 12.17617 -80.59707 28630 ft 445 kts 281°
2026-04-21 23:47 12.18211 -80.62801 28029 ft 441 kts 281°
2026-04-21 23:47 12.18799 -80.65870 27429 ft 438 kts 281°
2026-04-21 23:47 12.19383 -80.68919 26835 ft 434 kts 281°
2026-04-21 23:48 12.19963 -80.71947 26241 ft 431 kts 281°
2026-04-21 23:48 12.20531 -80.74915 25656 ft 428 kts 281°
2026-04-21 23:48 12.21101 -80.77898 25064 ft 425 kts 281°
2026-04-21 23:48 12.21666 -80.80856 24471 ft 422 kts 281°
2026-04-21 23:49 12.22226 -80.83792 23885 ft 419 kts 281°
2026-04-21 23:49 12.22782 -80.86708 23299 ft 416 kts 281°
2026-04-21 23:49 12.23335 -80.89605 22715 ft 413 kts 281°
2026-04-21 23:49 12.23884 -80.92483 22130 ft 411 kts 281°
2026-04-21 23:50 12.24429 -80.95342 21553 ft 407 kts 281°
2026-04-21 23:50 12.24961 -80.98141 20975 ft 404 kts 281°
2026-04-21 23:50 12.25496 -81.00954 20399 ft 401 kts 281°
2026-04-21 23:50 12.26026 -81.03736 19823 ft 397 kts 281°
2026-04-21 23:51 12.26550 -81.06492 19254 ft 393 kts 281°
2026-04-21 23:51 12.27068 -81.09222 18685 ft 390 kts 281°
2026-04-21 23:51 12.27582 -81.11933 18121 ft 386 kts 281°
2026-04-21 23:51 12.28092 -81.14623 17555 ft 383 kts 281°
2026-04-21 23:52 12.28596 -81.17283 17002 ft 379 kts 281°
2026-04-21 23:52 12.29097 -81.19923 16443 ft 376 kts 281°
2026-04-21 23:52 12.29593 -81.22543 15886 ft 373 kts 281°
2026-04-21 23:52 12.30084 -81.25135 15343 ft 370 kts 281°
2026-04-21 23:53 12.30572 -81.27719 14789 ft 367 kts 282°
2026-04-21 23:53 12.31048 -81.30238 14251 ft 364 kts 282°
2026-04-21 23:53 12.31527 -81.32773 13703 ft 362 kts 282°
2026-04-21 23:53 12.32003 -81.35291 13161 ft 359 kts 282°
2026-04-21 23:54 12.32476 -81.37795 12626 ft 357 kts 282°
2026-04-21 23:54 12.32944 -81.40276 12086 ft 354 kts 282°
2026-04-21 23:54 12.33410 -81.42746 11549 ft 352 kts 282°
2026-04-21 23:54 12.33873 -81.45199 11013 ft 349 kts 282°
2026-04-21 23:55 12.34176 -81.46808 10660 ft 348 kts 282°
2026-04-21 23:55 12.34633 -81.49235 10125 ft 346 kts 282°
2026-04-21 23:55 12.35086 -81.51641 9595 ft 344 kts 282°
2026-04-21 23:55 12.35683 -81.54805 8913 ft 339 kts 282°
2026-04-21 23:56 12.35984 -81.56401 8591 ft 337 kts 282°
2026-04-21 23:56 12.36567 -81.59511 7912 ft 335 kts 282°
2026-04-21 23:56 12.36863 -81.61089 7558 ft 333 kts 282°
2026-04-21 23:56 12.37298 -81.63407 7039 ft 331 kts 282°
2026-04-21 23:57 12.37731 -81.65711 6521 ft 329 kts 282°
2026-04-21 23:57 12.38161 -81.68001 6000 ft 327 kts 282°
2026-04-21 23:57 12.38582 -81.70254 5488 ft 325 kts 282°
2026-04-21 23:57 12.39006 -81.72517 4979 ft 322 kts 282°
2026-04-21 23:58 12.39429 -81.74766 4466 ft 321 kts 282°
2026-04-21 23:58 12.39841 -81.76977 4282 ft 308 kts 282°
2026-04-21 23:58 12.40237 -81.79086 4128 ft 296 kts 282°
2026-04-21 23:58 12.40863 -81.81020 3968 ft 280 kts 304°
2026-04-21 23:59 12.42134 -81.82455 3790 ft 267 kts 326°
2026-04-21 23:59 12.43670 -81.83426 3711 ft 251 kts 332°
2026-04-21 23:59 12.45138 -81.84291 3606 ft 234 kts 332°
2026-04-21 23:59 12.46504 -81.85118 3488 ft 221 kts 332°
2026-04-22 00:00 12.47834 -81.85758 3370 ft 203 kts 353°
2026-04-22 00:00 12.49151 -81.85678 3125 ft 191 kts 24°
2026-04-22 00:00 12.50122 -81.84840 2904 ft 180 kts 50°
2026-04-22 00:00 12.50887 -81.83843 2656 ft 176 kts 54°
2026-04-22 00:01 12.51588 -81.82841 2431 ft 170 kts 56°
2026-04-22 00:01 12.52208 -81.81829 2193 ft 166 kts 58°
2026-04-22 00:01 12.52796 -81.80830 1991 ft 161 kts 59°
2026-04-22 00:01 12.53333 -81.79868 1773 ft 152 kts 60°
2026-04-22 00:02 12.53879 -81.78951 1583 ft 152 kts 60°
2026-04-22 00:02 12.54422 -81.78008 1415 ft 152 kts 60°
2026-04-22 00:02 12.54946 -81.77098 1163 ft 144 kts 60°
2026-04-22 00:02 12.55444 -81.76230 997 ft 142 kts 60°
2026-04-22 00:03 12.55946 -81.75358 805 ft 142 kts 60°
2026-04-22 00:03 12.56445 -81.74489 627 ft 141 kts 60°
2026-04-22 00:03 12.56935 -81.73615 430 ft 142 kts 61°
2026-04-22 00:03 12.57434 -81.72738 263 ft 146 kts 59°
2026-04-22 00:04 12.57935 -81.71860 83 ft 138 kts 59°
2026-04-22 00:04 12.58372 -81.71102 52 ft 104 kts 59°
2026-04-22 00:04 12.58662 -81.70600 39 ft 49 kts 59°
2026-04-22 00:04 12.58726 -81.70484 34 ft 14 kts 65°
2026-04-22 00:05 12.58728 -81.70414 33 ft 3 kts 109°
2026-04-22 00:05 12.58723 -81.70400 33 ft 2 kts 113°
2026-04-22 00:05 12.58717 -81.70387 33 ft 2 kts 114°
2026-04-22 00:05 12.58711 -81.70374 33 ft 2 kts 114°
2026-04-22 00:06 12.58706 -81.70362 33 ft 2 kts 112°
2026-04-22 00:06 12.58707 -81.70338 32 ft 6 kts 73°
2026-04-22 00:06 12.58717 -81.70298 31 ft 6 kts 108°
2026-04-22 00:06 12.58682 -81.70275 31 ft 6 kts 152°
2026-04-22 00:07 12.58666 -81.70266 30 ft 0 kts 149°
2026-04-22 00:20 12.58681 -81.70274 31 ft 4 kts 158°
2026-04-22 00:20 12.58706 -81.70281 31 ft 4 kts 180°
2026-04-22 00:20 12.58732 -81.70276 30 ft 4 kts 207°
2026-04-22 00:21 12.58752 -81.70261 28 ft 2 kts 234°
2026-04-22 00:21 12.58744 -81.70273 29 ft 4 kts 237°
2026-04-22 00:21 12.58730 -81.70297 30 ft 4 kts 239°
2026-04-22 00:21 12.58718 -81.70316 31 ft 1 kts 238°
2026-04-22 00:23 12.58712 -81.70325 32 ft 3 kts 237°
2026-04-22 00:23 12.58705 -81.70356 33 ft 7 kts 271°
2026-04-22 00:24 12.58728 -81.70425 33 ft 14 kts 291°
2026-04-22 00:24 12.58702 -81.70533 36 ft 18 kts 239°
2026-04-22 00:24 12.58631 -81.70655 38 ft 22 kts 239°
2026-04-22 00:24 12.58554 -81.70789 47 ft 21 kts 239°
2026-04-22 00:25 12.58477 -81.70917 51 ft 21 kts 237°
2026-04-22 00:25 12.58406 -81.71042 56 ft 20 kts 240°
2026-04-22 00:25 12.58336 -81.71162 54 ft 19 kts 238°
2026-04-22 00:25 12.58271 -81.71280 61 ft 19 kts 241°
2026-04-22 00:26 12.58206 -81.71399 63 ft 20 kts 240°
2026-04-22 00:26 12.58129 -81.71530 66 ft 22 kts 238°
2026-04-22 00:26 12.58047 -81.71666 71 ft 22 kts 239°
2026-04-22 00:26 12.57971 -81.71802 74 ft 22 kts 239°
2026-04-22 00:27 12.57895 -81.71933 83 ft 21 kts 238°
2026-04-22 00:27 12.57818 -81.71998 81 ft 11 kts 224°
2026-04-22 00:27 12.57818 -81.72037 82 ft 5 kts 335°
2026-04-22 00:27 12.57840 -81.72023 81 ft 0 kts 58°
2026-04-22 00:28 12.57841 -81.72022 85 ft 2 kts 58°
2026-04-22 00:28 12.57976 -81.71792 74 ft 77 kts 59°
2026-04-22 00:28 12.58370 -81.71108 54 ft 143 kts 59°
2026-04-22 00:28 12.58899 -81.70107 429 ft 163 kts 72°
2026-04-22 00:29 12.58877 -81.68970 1232 ft 170 kts 113°
2026-04-22 00:29 12.58335 -81.67788 1559 ft 202 kts 106°
2026-04-22 00:29 12.57894 -81.66333 1880 ft 228 kts 105°
2026-04-22 00:29 12.57405 -81.64675 2142 ft 258 kts 103°
2026-04-22 00:30 12.56921 -81.62830 2528 ft 281 kts 103°
2026-04-22 00:30 12.56420 -81.60870 3310 ft 287 kts 102°
2026-04-22 00:30 12.55914 -81.58887 4201 ft 289 kts 102°
2026-04-22 00:30 12.55401 -81.56883 5056 ft 293 kts 102°
2026-04-22 00:31 12.54882 -81.54854 5943 ft 296 kts 102°
2026-04-22 00:31 12.54359 -81.52805 6808 ft 300 kts 102°
2026-04-22 00:31 12.53826 -81.50720 7660 ft 305 kts 103°
2026-04-22 00:31 12.53283 -81.48602 8516 ft 310 kts 103°
2026-04-22 00:32 12.52730 -81.46447 9375 ft 315 kts 103°
2026-04-22 00:32 12.52173 -81.44283 10221 ft 321 kts 103°
2026-04-22 00:32 12.51599 -81.42050 11143 ft 325 kts 103°
2026-04-22 00:32 12.51019 -81.39794 12007 ft 331 kts 103°
2026-04-22 00:33 12.50428 -81.37498 12851 ft 336 kts 103°
2026-04-22 00:33 12.49828 -81.35168 13675 ft 342 kts 103°
2026-04-22 00:33 12.49218 -81.32801 14485 ft 347 kts 103°
2026-04-22 00:33 12.48598 -81.30396 15333 ft 351 kts 104°
2026-04-22 00:34 12.47970 -81.27959 16146 ft 356 kts 104°
2026-04-22 00:34 12.47333 -81.25488 16930 ft 361 kts 104°
2026-04-22 00:34 12.46688 -81.22985 17691 ft 366 kts 104°
2026-04-22 00:34 12.46041 -81.20481 18410 ft 371 kts 104°
2026-04-22 00:35 12.45378 -81.17911 19139 ft 375 kts 104°
2026-04-22 00:35 12.44705 -81.15306 19878 ft 378 kts 104°
2026-04-22 00:35 12.44030 -81.12694 20582 ft 382 kts 104°
2026-04-22 00:35 12.43352 -81.10073 21260 ft 385 kts 104°
2026-04-22 00:36 12.42662 -81.07403 21907 ft 389 kts 104°
2026-04-22 00:36 12.41968 -81.04721 22523 ft 393 kts 104°
2026-04-22 00:36 12.41268 -81.02016 23147 ft 396 kts 104°
2026-04-22 00:36 12.40564 -80.99298 23730 ft 399 kts 104°
2026-04-22 00:37 12.39849 -80.96539 24290 ft 402 kts 104°
2026-04-22 00:37 12.39127 -80.93752 24840 ft 405 kts 104°
2026-04-22 00:37 12.38403 -80.90961 25355 ft 409 kts 104°
2026-04-22 00:37 12.37676 -80.88156 25858 ft 413 kts 105°
2026-04-22 00:38 12.36936 -80.85304 26353 ft 417 kts 105°
2026-04-22 00:38 12.36188 -80.82423 26842 ft 420 kts 105°
2026-04-22 00:38 12.35437 -80.79531 27331 ft 423 kts 105°
2026-04-22 00:38 12.34670 -80.76580 27783 ft 427 kts 105°
2026-04-22 00:39 12.33907 -80.73645 28236 ft 430 kts 105°
2026-04-22 00:39 12.33145 -80.70716 28666 ft 433 kts 105°
2026-04-22 00:39 12.32357 -80.67691 29092 ft 437 kts 105°
2026-04-22 00:39 12.31577 -80.64692 29507 ft 440 kts 105°
2026-04-22 00:40 12.30784 -80.61651 29924 ft 443 kts 105°
2026-04-22 00:40 12.29991 -80.58609 30325 ft 446 kts 105°
2026-04-22 00:40 12.29194 -80.55551 30713 ft 449 kts 105°
2026-04-22 00:40 12.28389 -80.52469 31109 ft 451 kts 105°
2026-04-22 00:41 12.27578 -80.49360 31620 ft 450 kts 105°
2026-04-22 00:41 12.26770 -80.46263 32200 ft 447 kts 105°
2026-04-22 00:41 12.25966 -80.43183 32754 ft 446 kts 106°
2026-04-22 00:41 12.25174 -80.40154 33234 ft 445 kts 106°
2026-04-22 00:42 12.24373 -80.37092 33692 ft 445 kts 107°
2026-04-22 00:42 12.23574 -80.34035 34166 ft 444 kts 107°
2026-04-22 00:42 12.22777 -80.30991 34639 ft 443 kts 107°
2026-04-22 00:42 12.21979 -80.27944 35065 ft 442 kts 107°
2026-04-22 00:43 12.21454 -80.25940 35330 ft 442 kts 107°
2026-04-22 00:43 12.20399 -80.21913 35821 ft 442 kts 107°
2026-04-22 00:43 12.19865 -80.19875 36095 ft 441 kts 107°
2026-04-22 00:43 12.19069 -80.16839 36476 ft 440 kts 107°
2026-04-22 00:44 12.18279 -80.13828 36759 ft 441 kts 107°
2026-04-22 00:44 12.17482 -80.10798 36980 ft 443 kts 107°
2026-04-22 00:44 12.16680 -80.07749 36947 ft 447 kts 107°
2026-04-22 00:45 12.15080 -80.01659 36956 ft 437 kts 107°
2026-04-22 00:45 12.13523 -79.95739 36969 ft 431 kts 107°
2026-04-22 00:46 12.11967 -79.89836 36952 ft 432 kts 107°
2026-04-22 00:46 12.10403 -79.83904 36949 ft 432 kts 107°
2026-04-22 00:47 12.08833 -79.77955 36946 ft 433 kts 107°
2026-04-22 00:47 12.07265 -79.72015 36944 ft 433 kts 107°
2026-04-22 00:48 12.05705 -79.66111 36943 ft 433 kts 107°
2026-04-22 00:48 12.04133 -79.60169 36945 ft 433 kts 107°
2026-04-22 00:49 12.02559 -79.54232 36946 ft 433 kts 107°
2026-04-22 00:49 12.00983 -79.48281 36943 ft 433 kts 107°
2026-04-22 00:50 11.99406 -79.42344 36944 ft 433 kts 107°
2026-04-22 00:50 11.97831 -79.36415 36946 ft 432 kts 107°
2026-04-22 00:51 11.96255 -79.30485 36933 ft 432 kts 107°
2026-04-22 00:51 11.94680 -79.24562 36933 ft 431 kts 107°
2026-04-22 00:52 11.93116 -79.18686 36935 ft 431 kts 107°
2026-04-22 00:52 11.91542 -79.12780 36935 ft 430 kts 107°
2026-04-22 00:53 11.89972 -79.06897 36940 ft 430 kts 107°
2026-04-22 00:53 11.88406 -79.01020 36932 ft 431 kts 107°
2026-04-22 00:54 11.86818 -78.95085 36934 ft 431 kts 108°
2026-04-22 00:54 11.85244 -78.89211 36940 ft 431 kts 108°
2026-04-22 00:55 11.83668 -78.83316 36934 ft 431 kts 108°
2026-04-22 00:55 11.81300 -78.74471 36921 ft 431 kts 108°
2026-04-22 00:56 11.79716 -78.68552 36930 ft 431 kts 107°
2026-04-22 00:56 11.78181 -78.62616 36929 ft 432 kts 107°
2026-04-22 00:57 11.76669 -78.56707 36927 ft 433 kts 107°
2026-04-22 00:57 11.75150 -78.50786 36933 ft 433 kts 107°
2026-04-22 00:58 11.73614 -78.44827 36920 ft 434 kts 107°
2026-04-22 00:58 11.72080 -78.38883 36926 ft 434 kts 107°
2026-04-22 00:59 11.70543 -78.32934 36930 ft 433 kts 107°
2026-04-22 00:59 11.69008 -78.27000 36918 ft 433 kts 108°
2026-04-22 01:00 11.67475 -78.21077 36927 ft 432 kts 108°
2026-04-22 01:00 11.65940 -78.15148 36930 ft 432 kts 108°
2026-04-22 01:01 11.64390 -78.09173 36919 ft 433 kts 108°
2026-04-22 01:01 11.62861 -78.03281 36915 ft 433 kts 108°
2026-04-22 01:02 11.61311 -77.97313 36922 ft 433 kts 108°
2026-04-22 01:02 11.59767 -77.91378 36913 ft 433 kts 108°
2026-04-22 01:03 11.58230 -77.85468 36923 ft 433 kts 108°
2026-04-22 01:03 11.56681 -77.79521 36917 ft 432 kts 108°
2026-04-22 01:04 11.55135 -77.73592 36919 ft 432 kts 108°
2026-04-22 01:04 11.53592 -77.67677 36922 ft 432 kts 108°
2026-04-22 01:05 11.52051 -77.61776 36907 ft 432 kts 108°
2026-04-22 01:05 11.50506 -77.55860 36912 ft 431 kts 108°
2026-04-22 01:06 11.48967 -77.49978 36902 ft 431 kts 108°
2026-04-22 01:06 11.47419 -77.44065 36910 ft 431 kts 107°
2026-04-22 01:07 11.45907 -77.38146 36909 ft 431 kts 106°
2026-04-22 01:07 11.44495 -77.32230 36902 ft 431 kts 106°
2026-04-22 01:08 11.43087 -77.26310 36909 ft 430 kts 106°
2026-04-22 01:08 11.41662 -77.20372 36910 ft 429 kts 106°
2026-04-22 01:09 11.40238 -77.14464 36909 ft 429 kts 106°
2026-04-22 01:09 11.38810 -77.08554 36909 ft 429 kts 106°
2026-04-22 01:10 11.37388 -77.02674 36904 ft 429 kts 106°
2026-04-22 01:10 11.35957 -76.96760 36908 ft 429 kts 106°
2026-04-22 01:11 11.34529 -76.90857 36905 ft 428 kts 106°
2026-04-22 01:11 11.33108 -76.84999 36896 ft 428 kts 107°
2026-04-22 01:12 11.31677 -76.79101 36898 ft 428 kts 107°
2026-04-22 01:12 11.30246 -76.73210 36891 ft 429 kts 107°
2026-04-22 01:13 11.28812 -76.67305 36896 ft 429 kts 107°
2026-04-22 01:13 11.27376 -76.61404 36894 ft 429 kts 107°
2026-04-22 01:14 11.25922 -76.55529 36417 ft 433 kts 108°
2026-04-22 01:14 11.25130 -76.52565 35909 ft 434 kts 108°
2026-04-22 01:14 11.24317 -76.49602 35271 ft 434 kts 108°
2026-04-22 01:15 11.23498 -76.46634 34609 ft 436 kts 108°
2026-04-22 01:15 11.22678 -76.43653 33931 ft 437 kts 107°
2026-04-22 01:15 11.21859 -76.40664 33231 ft 439 kts 107°
2026-04-22 01:15 11.21044 -76.37675 32510 ft 442 kts 107°
2026-04-22 01:16 11.20219 -76.34643 31796 ft 443 kts 107°
2026-04-22 01:16 11.19400 -76.31627 31263 ft 440 kts 106°
2026-04-22 01:16 11.18583 -76.28617 30711 ft 437 kts 106°
2026-04-22 01:16 11.17778 -76.25651 30178 ft 435 kts 106°
2026-04-22 01:17 11.16972 -76.22686 29638 ft 432 kts 105°
2026-04-22 01:17 11.16175 -76.19753 29086 ft 428 kts 105°
2026-04-22 01:17 11.15385 -76.16848 28526 ft 425 kts 105°
2026-04-22 01:17 11.14604 -76.13958 27970 ft 421 kts 105°
2026-04-22 01:18 11.13842 -76.11110 27408 ft 418 kts 105°
2026-04-22 01:18 11.13063 -76.08261 26854 ft 414 kts 105°
2026-04-22 01:18 11.12294 -76.05465 26305 ft 411 kts 106°
2026-04-22 01:18 11.11532 -76.02688 25760 ft 407 kts 106°
2026-04-22 01:19 11.10773 -75.99917 25215 ft 403 kts 105°
2026-04-22 01:19 11.10027 -75.97190 24671 ft 400 kts 105°
2026-04-22 01:19 11.09280 -75.94455 24124 ft 395 kts 105°
2026-04-22 01:19 11.08554 -75.91798 23595 ft 392 kts 105°
2026-04-22 01:20 11.07825 -75.89126 23057 ft 388 kts 105°
2026-04-22 01:20 11.07102 -75.86478 22520 ft 384 kts 105°
2026-04-22 01:20 11.06388 -75.83864 21987 ft 381 kts 105°
2026-04-22 01:20 11.05687 -75.81301 21463 ft 378 kts 105°
2026-04-22 01:21 11.04989 -75.78748 20940 ft 374 kts 105°
2026-04-22 01:21 11.04288 -75.76189 20411 ft 371 kts 105°
2026-04-22 01:21 11.03585 -75.73678 19898 ft 368 kts 107°
2026-04-22 01:21 11.02774 -75.71212 19380 ft 365 kts 109°
2026-04-22 01:22 11.01918 -75.68816 18879 ft 362 kts 110°
2026-04-22 01:22 11.01050 -75.66434 18357 ft 360 kts 110°
2026-04-22 01:22 11.00182 -75.64051 17841 ft 357 kts 110°
2026-04-22 01:22 10.99324 -75.61678 17324 ft 354 kts 110°
2026-04-22 01:23 10.98478 -75.59319 16807 ft 352 kts 110°
2026-04-22 01:23 10.97648 -75.56993 16295 ft 350 kts 110°
2026-04-22 01:23 10.96830 -75.54692 15785 ft 348 kts 110°
2026-04-22 01:23 10.96012 -75.52388 15276 ft 345 kts 110°
2026-04-22 01:24 10.95201 -75.50103 14802 ft 341 kts 110°
2026-04-22 01:24 10.94396 -75.47830 14163 ft 343 kts 110°
2026-04-22 01:24 10.93587 -75.45548 13630 ft 341 kts 110°
2026-04-22 01:24 10.92785 -75.43285 13104 ft 339 kts 110°
2026-04-22 01:25 10.91987 -75.41034 12587 ft 336 kts 109°
2026-04-22 01:25 10.91196 -75.38804 12080 ft 333 kts 109°
2026-04-22 01:25 10.90413 -75.36591 11571 ft 331 kts 109°
2026-04-22 01:25 10.89633 -75.34395 11060 ft 328 kts 109°
2026-04-22 01:26 10.88863 -75.32222 10563 ft 325 kts 109°
2026-04-22 01:26 10.88099 -75.30070 10050 ft 323 kts 109°
2026-04-22 01:26 10.87349 -75.27959 9559 ft 320 kts 109°
2026-04-22 01:26 10.86585 -75.25809 9057 ft 317 kts 109°
2026-04-22 01:27 10.85847 -75.23733 8576 ft 315 kts 109°
2026-04-22 01:27 10.85106 -75.21649 8074 ft 312 kts 109°
2026-04-22 01:27 10.84371 -75.19581 7587 ft 310 kts 109°
2026-04-22 01:27 10.83646 -75.17539 7130 ft 305 kts 109°
2026-04-22 01:28 10.82924 -75.15515 6641 ft 303 kts 109°
2026-04-22 01:28 10.82209 -75.13503 6149 ft 301 kts 109°
2026-04-22 01:28 10.81498 -75.11505 5669 ft 299 kts 109°
2026-04-22 01:28 10.80793 -75.09523 5193 ft 297 kts 109°
2026-04-22 01:29 10.80094 -75.07561 4739 ft 293 kts 109°
2026-04-22 01:29 10.79403 -75.05615 4261 ft 292 kts 109°
2026-04-22 01:29 10.78713 -75.03679 3826 ft 291 kts 109°
2026-04-22 01:29 10.78048 -75.01810 3679 ft 278 kts 109°
2026-04-22 01:30 10.77405 -75.00008 3561 ft 265 kts 109°
2026-04-22 01:30 10.76791 -74.98283 3435 ft 252 kts 109°
2026-04-22 01:30 10.76212 -74.96663 3359 ft 235 kts 108°
2026-04-22 01:30 10.75673 -74.95146 3210 ft 220 kts 109°
2026-04-22 01:31 10.75167 -74.93736 3105 ft 206 kts 108°
2026-04-22 01:31 10.74696 -74.92408 3024 ft 193 kts 106°
2026-04-22 01:31 10.74735 -74.91154 2979 ft 171 kts 59°
2026-04-22 01:31 10.75432 -74.90212 2877 ft 165 kts 49°
2026-04-22 01:32 10.76192 -74.89361 2718 ft 163 kts 47°
2026-04-22 01:32 10.76961 -74.88534 2554 ft 159 kts 44°
2026-04-22 01:32 10.77765 -74.87773 2443 ft 158 kts 41°
2026-04-22 01:32 10.78605 -74.87025 2323 ft 162 kts 40°
2026-04-22 01:33 10.79170 -74.86532 2204 ft 161 kts 40°
2026-04-22 01:33 10.80008 -74.85807 2107 ft 154 kts 39°
2026-04-22 01:33 10.80799 -74.85124 1932 ft 145 kts 39°
2026-04-22 01:33 10.81559 -74.84470 1752 ft 140 kts 39°
2026-04-22 01:34 10.82295 -74.83834 1555 ft 136 kts 40°
2026-04-22 01:34 10.82996 -74.83229 1377 ft 129 kts 39°
2026-04-22 01:34 10.83673 -74.82643 1215 ft 127 kts 39°
2026-04-22 01:34 10.84355 -74.82056 1049 ft 129 kts 39°
2026-04-22 01:35 10.85036 -74.81467 868 ft 128 kts 39°
2026-04-22 01:35 10.85718 -74.80879 711 ft 130 kts 39°
2026-04-22 01:35 10.86406 -74.80286 533 ft 129 kts 40°
2026-04-22 01:35 10.87078 -74.79705 358 ft 128 kts 39°
2026-04-22 01:36 10.87767 -74.79112 183 ft 128 kts 39°
2026-04-22 01:36 10.88416 -74.78556 95 ft 113 kts 39°
2026-04-22 01:36 10.88923 -74.78120 87 ft 78 kts 40°
2026-04-22 01:36 10.89249 -74.77841 76 ft 43 kts 40°
2026-04-22 01:37 10.89372 -74.77714 70 ft 24 kts 67°
2026-04-22 01:37 10.89383 -74.77588 72 ft 12 kts 101°
2026-04-22 01:37 10.89327 -74.77540 67 ft 10 kts 160°
2026-04-22 01:37 10.89267 -74.77519 64 ft 8 kts 161°
2026-04-22 01:38 10.89217 -74.77502 66 ft 8 kts 160°
2026-04-22 01:38 10.89168 -74.77488 73 ft 7 kts 175°
2026-04-22 01:38 10.89087 -74.77518 72 ft 16 kts 214°
2026-04-22 01:38 10.89003 -74.77591 76 ft 16 kts 221°
2026-04-22 01:39 10.88922 -74.77662 74 ft 15 kts 220°
2026-04-22 01:39 10.88845 -74.77728 80 ft 14 kts 219°
2026-04-22 01:39 10.88772 -74.77789 81 ft 13 kts 220°
2026-04-22 01:39 10.88702 -74.77848 83 ft 13 kts 219°
2026-04-22 01:40 10.88635 -74.77906 84 ft 12 kts 220°
2026-04-22 01:40 10.88560 -74.77916 88 ft 12 kts 139°
2026-04-22 01:40 10.88508 -74.77851 89 ft 12 kts 129°
2026-04-22 01:40 10.88457 -74.77788 85 ft 11 kts 131°
2026-04-22 01:41 10.88473 -74.77725 84 ft 11 kts 38°
2026-04-22 01:41 10.88521 -74.77686 83 ft 4 kts 37°
2026-04-22 01:41 10.88542 -74.77695 85 ft 4 kts 309°
2026-04-22 01:41 10.88550 -74.77706 85 ft 0 kts 308°
2026-04-22 01:42 10.88551 -74.77706 83 ft 0 kts 308°